Select NOAA-NWS Forecast Office Text Products

(Product availability varies with seasons, forecast office, and weather.)

Regional Weather Roundup for Pendleton, OR

To Select Another NWS Office Click on Map or Choose from List

County Warning Area MAP
Select Forecast Office:   Select Product:  
000
ASUS46 KPDT 010625
RWRPDT
PENDLETON REGIONAL WEATHER ROUNDUP
NATIONAL WEATHER SERVICE PENDLETON OREGON
1100 PM PDT SAT JUL 31 2021

NOTE: FAIR INDICATES FEW OR NO CLOUDS BELOW 12,000 FEET WITH NO
SIGNIFICANT WEATHER AND/OR OBSTRUCTIONS TO VISIBILITY.

# INDICATES UNOFFICIAL STATION AND DATA

WAZ520-010710-
EAST SLOPES OF WASHINGTON CASCADES

CITY            SKY/WX      TMP DP  RH  WIND    PRES   REMARKS
#BULLFROG       N/A         77  56  48  CALM    N/A
#NELSON 3SW     N/A         80  53  39  CALM    30.03S
#NILE           N/A         79  54  42  CALM    29.37R
#TROUT LAKE 1NE N/A         68  64  87  CALM    29.94F
#TROUT LAKE 1E  N/A         68  64  87  CALM    30.08F
$$

WAZ521-010710-
SIMCOE HIGHLANDS

CITY            SKY/WX      TMP DP  RH  WIND    PRES   REMARKS
#CENTERVILLE 1SWN/A         75  59  58  CALM    29.88R
#LYLE 6NE       N/A         71  61  71  CALM    29.94S
$$

WAZ026-010710-
KITTITAS VALLEY

CITY            SKY/WX      TMP DP  RH  WIND    PRES   REMARKS
ELLENSBURG AP   MOCLDY      88  49  26  W12     29.99R
#ELLENSBURG 3NE N/A         85  55  36  N2      28.07R
#ELLENSBURG 1E  N/A         84  57  40  CALM    29.91R
#KITTITAS 3S    N/A         80  58  47  CALM    29.87R
$$

WAZ027-010710-
YAKIMA VALLEY

CITY            SKY/WX      TMP DP  RH  WIND    PRES   REMARKS
SUNNYSIDE AP    PTCLDY      79  62  56  N3      29.93S
YAKIMA AIRPORT  MOCLEAR     89  52  28  N5      29.95S
6HR MIN TEMP:   88; 6HR MAX TEMP:   94;

YAKIMA-VAGABOND PTCLDY      88  47  24  S9      29.96R
6HR MIN TEMP:   88; 6HR MAX TEMP:   94;

#MABTON         N/A         88  58  36  W3      29.91F
#NACHES 2SW     N/A         82  52  35  W6      30.01R
#OUTLOOK DOT    N/A         80  62  54  CALM    N/A
#PARKER DOT     N/A         87  50  28  CALM    N/A
#TERRACE HTS    N/A         86  54  34  CALM    29.85S
#I82 S UMTANUM RN/A         87  54  32  SE3     N/A
#UNION GAP DOT  N/A         87  54  32  SW8     N/A
#ZILLAH DOT     N/A         82  58  44  NW3     N/A
$$

WAZ028-010710-
LOWER COLUMBIA BASIN...WASHINGTON

CITY            SKY/WX      TMP DP  RH  WIND    PRES   REMARKS
PASCO           LGT RAIN    88  60  39  W13     29.89S HAZE
6HR MIN TEMP:   85; 6HR MAX TEMP:   105; 6HR PCP:  TRACE;

PROSSER AWOS    N/A         84  57  40  VRB7    29.95R
RICHLAND AWOS   PTCLDY      87  59  39  SW6     29.89S
#BASIN CITY 5SW N/A         86  57  37  S2      29.91S
#BENTON CITY    N/A         84  60  44  CALM    29.77R
#CONNELL 5N     N/A         83  60  46  W7      29.84F
#ELTOPIA 6NW    N/A         82  61  49  CALM    28.90F
#KAHLOTUS       N/A         88  55  33  NW25G33 29.82F
#KENNEWICK 3S   N/A         86  62  45  CALM    29.85R
#PROSSER DOT    N/A         83  62  49  CALM    N/A
#SAGEMOOR 2W    N/A         83  63  51  W6      29.74R
$$

WAZ029-010710-
FOOTHILLS OF THE BLUES...WASHINGTON

CITY            SKY/WX      TMP DP  RH  WIND    PRES   REMARKS
WALLA WALLA AP  FAIR        86  52  31  S9      29.97S
6HR MIN TEMP:   85; 6HR MAX TEMP:   97; 6HR PCP:  TRACE;

#CLYDE 6NW      N/A         86  58  39  SW9     29.82F
#DELANEY DOT    N/A         86  51  30  SE6     N/A
#LOWDEN 2SE     N/A         82  61  49  CALM    29.88S
#PRESCOTT       N/A         87  55  34  CALM    29.86S
#WALLA WALLA 5E N/A         85  55  36  S7      N/A
#WHITMAN MISSIONN/A         82  60  47  E2      29.90F
$$

WAZ030-010710-
BLUE MOUNTAINS...WASHINGTON

CITY            SKY/WX      TMP DP  RH  WIND    PRES   REMARKS
$$

ORZ009-041-WAZ024-010710-
COLUMBIA RIVER GORGE

CITY            SKY/WX      TMP DP  RH  WIND    PRES   REMARKS
HOOD RIVER AP   FAIR        70  63  78  SW3     30.00S
THE DALLES AP   MOCLEAR     80  61  52  W6      29.94F
6HR MIN TEMP:   80; 6HR MAX TEMP:   86;

#CELILO DOT     N/A         81  62  53  SW2     N/A

$$

ORZ510-010710-
NORTH CENTRAL OREGON

CITY            SKY/WX      TMP DP  RH  WIND    PRES   REMARKS
#ANTELOPE       N/A         68  64  87  CALM    29.78R
#COW CYN RST AREN/A         72  58  61  E1      N/A
#DUFUR          N/A         80  60  51  W2      29.88S
#DUFUR 9E       N/A         79  56  45  E10     29.93R
#GRASS VALLEY 1SN/A         77  59  54  W2      29.85F
#KENT DOT       N/A         74  51  44  W7      N/A
#MORO SCHOOL    N/A         82  57  43  CALM    29.91S
#SHANIKO 5WSW   N/A         67  60  78  S7      N/A
#WAPANITIA AIRPON/A         76  61  60  CALM    29.93S
#WASCO DOT      N/A         78  61  56  NW1     N/A
#WASCO 5NE      N/A         79  59  50  W13     29.88S
$$

ORZ511-010710-
CENTRAL OREGON

CITY            SKY/WX      TMP DP  RH  WIND    PRES   REMARKS
BEND AIRPORT    FAIR        66  61  84  CALM    30.18S
MADRAS AIRPORT  PTCLDY      68  59  73  SE7     30.13S
PRINEVILLE AP   CLOUDY      64  61  90  CALM    30.16F
REDMOND AIRPORT FAIR        70  60  71  CALM    30.15R
6HR MIN TEMP:   68; 6HR MAX TEMP:   77; 6HR PCP:  TRACE;

#ASHWOOD SCHOOL N/A         68  62  81  CALM    30.07S
#BEND-KIM LN    N/A         66  59  78  E1      29.89R
#CULVER         N/A         69  59  70  CALM    29.41S
#PRINEVILLE     N/A         68  62  81  E1      30.04S
#WARM SPRINGS   N/A         72  64  76  CALM    29.86R

$$


ORZ509-010710-
EAST SLOPES OF OREGON CASCADES

CITY            SKY/WX      TMP DP  RH  WIND    PRES   REMARKS
SISTERS AWOS    N/A         70  61  73  CALM    30.12S
SUNRIVER AWOS   PTCLDY      63  57  81  CALM    30.25S
#BLUE BOX PASS  N/A         69  N/A N/A CALM    N/A
#LA PINE DOT    N/A         67  56  68  SW1     N/A
#LAVA BUTTE DOT N/A         64  55  73  CALM    N/A
#SISTERS ODOT   N/A         68  59  73  CALM    N/A
#WANOGA BUTTE D N/A         64  51  63  W3      N/A

$$

ORZ044-010710-
LOWER COLUMBIA BASIN...OREGON

CITY            SKY/WX      TMP DP  RH  WIND    PRES   REMARKS
HERMISTON       PTCLDY      86  59  40  SW6     29.94R
6HR MIN TEMP:   86; 6HR MAX TEMP:   99; 6HR PCP:  TRACE;

#ECHO 8SW       N/A         84  60  44  SW8     29.95R
#I-84 EX 198 DOTN/A         86  58  39  CALM    N/A
#UMATILLA       N/A         85  61  45  CALM    29.80R
$$

ORZ507-010710-
NORTHERN FOOTHILLS OF THE BLUES

CITY            SKY/WX      TMP DP  RH  WIND    PRES   REMARKS
PENDLETON AIRPT FAIR        82  56  41  SE7     30.00R
6HR MIN TEMP:   82; 6HR MAX TEMP:   96; 6HR PCP:  TRACE;

#ATHENA         N/A         80  59  49  CALM    29.92R
#CAYUSE         N/A         82  59  46  CALM    29.88R
#HELIX SCHOOL   N/A         76  58  54  CALM    29.89R
#HELIX 3N       N/A         77  57  50  N5      30.03S
#HOLDMAN 6E     N/A         79  59  50  CALM    29.69R
#M-FREEWATER 5SEN/A         81  61  51  CALM    29.97F
#PENDLETON 6SE  N/A         81  56  42  S2      29.85R
#TUTUILLA       N/A         79  56  45  CALM    30.05R
#UMAPINE 2E     N/A         82  61  49  SE2     29.88S

$$

ORZ508-010710-
SOUTHERN FOOTHILLS OF THE BLUES

CITY            SKY/WX      TMP DP  RH  WIND    PRES   REMARKS
#HEPPNER EOC    N/A         76  59  56  CALM    29.83R
#HEPPNER 4NE    N/A         73  58  59  CALM    29.88R
#OLEX 4N        N/A         81  61  51  CALM    29.90R
#RUGGS 2SW      N/A         76  58  54  SW7     29.93R

$$

ORZ502-503-010710-
BLUE MOUNTAINS

CITY            SKY/WX      TMP DP  RH  WIND    PRES   REMARKS
MEACHAM         CLOUDY      66  63  90  CALM    30.17R
6HR MIN TEMP:   65; 6HR MAX TEMP:   86; 6HR PCP:  0.04;

#BATTLE MTN DOT N/A         66  59  78  S2      N/A
#LADD CYN SMT   N/A         65  63  93  CALM    N/A
#LADD CREEK ODOTN/A         65  63  93  NW1     N/A
#N POWDER DOT   N/A         71  65  81  E2      N/A
#TOLLGATE       N/A         67  52  59  CALM    30.23S
#WESTON 4E      N/A         75  54  48  CALM    29.83S
$$

ORZ505-010710-
JOHN DAY BASIN

CITY            SKY/WX      TMP DP  RH  WIND    PRES   REMARKS
JOHN DAY        MOCLDY      69  62  78  E7      30.18R
#DAYVILLE SCHOOLN/A         76  60  58  CALM    30.04S
#MITCHELL 8NW   N/A         71  54  55  SW3     29.94R
#MONUMENT HS    N/A         79  54  42  CALM    29.80R
#MT. VERNON 5SE N/A         69  55  61  CALM    30.20S
$$

ORZ506-010710-
OCHOCO AND JOHN DAY HIGHLANDS

CITY            SKY/WX      TMP DP  RH  WIND    PRES   REMARKS
#BUCK CREEK DOT N/A         61  58  90  W2      N/A
#HORSE RIDGE DO N/A         63  56  78  SE3     N/A
#KEYES SMT DOT  N/A         65  56  73  NW1     N/A
#PAULINA ODOT   N/A         64  63  97  SW2     N/A
#SENECA 9NW     N/A         61  59  93  CALM    29.92
$$

ORZ049-010710-
GRANDE RONDE VALLEY

CITY            SKY/WX      TMP DP  RH  WIND    PRES   REMARKS
LA GRANDE       MOCLEAR     71  64  79  SE6     30.12R
#COVE SCHOOL    N/A         70  62  76  NW1     30.12R
#ELGIN 1E       N/A         72  61  68  CALM    N/A
#IMBLER SCHOOL  N/A         68  63  84  CALM    30.06R
#ISLAND CITY 4N N/A         70  62  76  CALM    30.02R
#LADD CYN DOT   N/A         68  66  93  SE5     N/A
#UNION 1S       N/A         73  65  76  CALM    29.91R
$$

ORZ050-010710-
WALLOWA COUNTY

CITY            SKY/WX      TMP DP  RH  WIND    PRES   REMARKS
JOSEPH AIRPORT  LGT RAIN    66  62  87  CALM    30.21R
#IMNAHA SCHOOL  N/A         82  62  51  CALM    29.91R
#JOSEPH 3N      N/A         66  60  81  CALM    30.19R
#LOSTINE 3SE    N/A         68  64  87  W6      30.23F
#WALLOWA LAKE   N/A         65  63  93  CALM    30.25S



$$

Previous Regional Weather Roundups may be found at
NWS Pendleton, OR (PDT) Office Regional Weather Roundups.
(Click 'Previous Version' there to view past versions successively.
Some may differ only in time posted.)

San Juan, PRHonolulu, HI Lake Charles, LA Pueblo, CO Corpus Christi, TX St. Louis, MO Reno, NV Raleigh, NC  Newport/Morehead City, NC Dodge City, KS Houston/Galveston, TX San Joaquin Valley/Hanford, CA Louisville, KY Fort Worth, TX Pittsburgh, PA Austin/San Antonio, TX Sacramento, CA Jackson, MS Phoenix, AZ Northern Indiana, IN Flagstaff, AZ Tallahassee, FL Springfield, MO Riverton, WY Blacksburg, VA Sioux Falls, SD El Paso Area, NM Columbia, SC Wilmington, NC Greenville-Spartanburg, SC Eureka, CA Midland/Odessa, TX Tucson, AZ Goodland, KS Huntsville, AL Amarillo, TX Norman, OK Lubbock, TX Marquette, MI Little Rock, AR Pendleton, OR Missoula, MT Binghamton, NY Boston, MA Green Bay, WI Billings, MT Baltimore/Washington San Diego, CA Tampa Bay, FL Morristown, TN Twin Cities, MN Brownsville, TX Portland, OR Des Moines, IA Memphis, TN Pocatello, ID San Angelo, TX Jacksonville, FL Aberdeen, SD Quad Cities, IA/IL Charleston, SC New Orleans/Baton Rouge, LA Peachtree City, GA Shreveport, LA Grand Rapids, MI Medford, OR Albany, NY Wichita, KS Gray/Portland, ME Spokane, WA Boise, ID Denver/Boulder, CO Great Falls, MT Caribou, ME Key West, FL Miami-South Florida, FL New York City/Upton, NY Melbourne, FL Hastings, NE Paducah, KY Glasgow, MT Bismarck, ND Charleston WV Omaha/Valley, NE Buffalo, NY Jackson, KY Kansas City/Pleasant Hill, MO Gaylord, MI Cheyenne, WY Grand Forks, ND Detroit/Pontiac, MI Central Illinois, IL Burlington, VT Salt Lake City, UT Topeka, KS Nashville, TN Milwaukee/Sullivan, WI Albuquerque, NM Las Vegas, NV Wakefield, VA La Crosse, WI Birmingham, AL Los Angeles/Oxnard, CA Chicago, IL Seattle, WA Rapid City, SD Indianapolis, IN Philadelphia/Mount Holly, PA Mobile/Pensacola State College, PA Cleveland, OH Elko, NV Wilmington, OH Grand Junction, CO North Platte, NE Tulsa, OK San Francisco/Monterey Bay Area, CA Duluth, MN Anchorage, AK Fairbanks, AK Juneau, AK Tiyan, GU

Products Courtesy of NOAA-NWS
NWS Information Parsing Script by Ken True at Saratoga Weather - WFO and Products Scripts by SE Lincoln Weather.
Mapping by Curly at Michiana Weather and by Tom at My Mishawaka Weather.